FW4708 Hollywood FL US current weather conditions

sailwx.info

Wind from 138 at 1 knots gusting 5

Air temperature 23.9° C
Dewpoint 19.2° C

Last reported at 2020-Jan-24 22:08 UTC.
Time now 2020-Jan-24 23:00 UTC

Location: N 26°01' W 080°13'.
View on Google Maps.

See reports from other nearby stations

  
Tides and Currents Weather Stations Pressure Air Temp Water Temp Dewpoint Dewpoint Depression Visibility Wind Speed Wind Dir Waves Ship Positions
date/time (UTC)wind fromknots sea level pressurealtimeterstation pressurevisibilityair tempwater tempwave heightnotes
2020-Jan-24 22:08 138 1 gusting 5 23.9
2020-Jan-24 22:03 106 2 gusting 6 23.9
2020-Jan-24 21:53 129 3 gusting 6 23.9
2020-Jan-24 21:48 124 3 gusting 6 23.9
2020-Jan-24 21:43 127 4 gusting 6 23.9
2020-Jan-24 21:38 140 3 gusting 6 23.9
2020-Jan-24 21:33 122 4 gusting 6 23.9
2020-Jan-24 21:28 122 4 gusting 6 23.9
2020-Jan-24 21:23 116 4 gusting 6 24.4
2020-Jan-24 21:18 088 3 gusting 10 24.4
2020-Jan-24 21:13 145 3 gusting 8 24.4
2020-Jan-24 21:08 150 4 gusting 8 24.4
2020-Jan-24 21:03 192 3 gusting 6 24.4
2020-Jan-24 20:58 136 3 gusting 7 24.4
2020-Jan-24 20:53 129 4 gusting 8 24.4
2020-Jan-24 20:48 119 5 gusting 8 24.4
2020-Jan-24 20:43 115 2 gusting 6 24.4
2020-Jan-24 20:38 115 3 gusting 6 24.4
2020-Jan-24 20:33 141 3 gusting 10 24.4
2020-Jan-24 20:28 110 6 gusting 10 24.4
2020-Jan-24 20:23 120 4 gusting 8 25.0
2020-Jan-24 20:18 093 6 gusting 10 25.0
2020-Jan-24 20:13 119 5 gusting 10 25.0
2020-Jan-24 20:08 148 6 gusting 9 25.6
2020-Jan-24 20:03 141 3 gusting 9 25.0
2020-Jan-24 19:58 086 6 gusting 9 25.0
2020-Jan-24 19:53 134 2 gusting 7 25.0
2020-Jan-24 19:48 111 4 gusting 7 25.0
2020-Jan-24 19:43 189 4 gusting 7 25.0
2020-Jan-24 19:38 092 4 gusting 12 25.0
2020-Jan-24 19:33 119 6 gusting 12 25.0
2020-Jan-24 19:28 131 6 gusting 10 25.0
2020-Jan-24 19:23 104 5 gusting 8 25.0
2020-Jan-24 19:18 102 5 gusting 8 24.4
2020-Jan-24 19:13 127 4 gusting 8 24.4
2020-Jan-24 19:08 117 3 gusting 7 24.4
2020-Jan-24 19:03 134 4 gusting 7 24.4
2020-Jan-24 18:58 113 3 gusting 8 24.4
2020-Jan-24 18:53 141 4 gusting 8 24.4
2020-Jan-24 18:48 150 4 gusting 6 24.4
2020-Jan-24 18:43 105 2 gusting 5 24.4
2020-Jan-24 18:38 158 3 gusting 9 24.4
2020-Jan-24 18:33 101 5 gusting 7 24.4
2020-Jan-24 18:28 145 1 gusting 8 24.4
2020-Jan-24 18:23 145 2 gusting 8 24.4
2020-Jan-24 18:18 124 2 gusting 11 24.4
2020-Jan-24 18:13 123 5 gusting 11 25.0
2020-Jan-24 18:08 162 3 gusting 6 25.0
2020-Jan-24 18:03 142 2 gusting 6 24.4
2020-Jan-24 17:58 133 3 gusting 7 24.4
2020-Jan-24 17:53 150 4 gusting 7 24.4
2020-Jan-24 17:48 146 4 gusting 7 24.4
2020-Jan-24 17:43 116 3 gusting 8 25.0
2020-Jan-24 17:38 117 3 gusting 8 24.4
2020-Jan-24 17:33 150 4 gusting 7 24.4
2020-Jan-24 17:28 083 3 gusting 7 25.0
2020-Jan-24 17:23 099 5 gusting 9 25.0
2020-Jan-24 17:18 130 4 gusting 9 25.0
2020-Jan-24 17:13 115 6 gusting 9 25.0
2020-Jan-24 17:08 085 3 gusting 6 25.0
2020-Jan-24 17:03 088 1 gusting 6 25.0
2020-Jan-24 16:58 155 3 gusting 7 24.4
2020-Jan-24 16:53 139 5 gusting 7 24.4
2020-Jan-24 16:48 104 2 gusting 6 24.4
2020-Jan-24 16:43 124 2 gusting 6 25.0
2020-Jan-24 16:38 141 3 gusting 6 25.0
2020-Jan-24 16:33 111 4 gusting 7 25.0
2020-Jan-24 16:28 174 5 gusting 7 25.0
2020-Jan-24 16:23 127 2 gusting 6 25.0
2020-Jan-24 16:18 136 1 gusting 6 24.4
2020-Jan-24 16:13 119 2 gusting 5 24.4
2020-Jan-24 16:08 136 2 gusting 6 24.4
2020-Jan-24 16:03 158 3 gusting 6 23.9
2020-Jan-24 15:58 134 2 gusting 6 23.9
2020-Jan-24 15:53 149 1 gusting 5 23.9
2020-Jan-24 15:48 145 2 gusting 5 23.9
2020-Jan-24 15:43 146 1 gusting 3 23.9
2020-Jan-24 15:38 220 0 gusting 5 24.4
2020-Jan-24 15:33 123 1 gusting 5 23.9
2020-Jan-24 15:28 152 0 gusting 3 23.9
2020-Jan-24 15:23 160 0 gusting 3 23.9
2020-Jan-24 15:19 145 0 gusting 3 23.3
2020-Jan-24 15:13 179 2 gusting 3 22.8
2020-Jan-24 15:08 232 22.8
2020-Jan-24 15:03 156 22.8
2020-Jan-24 14:58 216 22.2
2020-Jan-24 14:53 182 21.7
2020-Jan-24 14:48 136 0 gusting 1 21.7
2020-Jan-24 14:43 284 21.7
2020-Jan-24 14:38 283 21.1
2020-Jan-24 14:33 279 21.1
2020-Jan-24 14:28 278 21.1
2020-Jan-24 14:23 276 20.6
2020-Jan-24 14:18 314 0 gusting 1 20.6
2020-Jan-24 14:13 345 20.6
2020-Jan-24 14:08 088 20.6
2020-Jan-24 14:03 357 20.0
2020-Jan-24 13:58 006 0 gusting 0 20.0
2020-Jan-24 13:53 349 0 gusting 1 19.4
2020-Jan-24 13:48 354 19.4
2020-Jan-24 13:43 349 0 gusting 1 19.4
2020-Jan-24 13:38 011 0 gusting 1 18.9
2020-Jan-24 13:33 006 0 gusting 1 18.9
2020-Jan-24 13:28 323 18.9
2020-Jan-24 13:23 323 18.3
2020-Jan-24 13:18 344 18.3
2020-Jan-24 13:13 349 18.3
2020-Jan-24 13:08 348 17.8
2020-Jan-24 13:03 348 17.8
2020-Jan-24 12:58 348 17.8
2020-Jan-24 12:53 354 17.8
2020-Jan-24 12:48 354 17.8
2020-Jan-24 12:44 354 17.8
2020-Jan-24 12:38 355 17.8
2020-Jan-24 12:33 355 17.2
2020-Jan-24 12:28 355 17.2
2020-Jan-24 12:23 355 17.2
2020-Jan-24 12:18 355 17.2
2020-Jan-24 12:13 355 17.2
2020-Jan-24 12:08 356 17.2
2020-Jan-24 12:03 002 17.2
2020-Jan-24 11:58 001 0 gusting 0 17.2
2020-Jan-24 11:53 002 17.2
2020-Jan-24 11:48 002 17.2
2020-Jan-24 11:43 001 0 gusting 1 17.8
2020-Jan-24 11:38 335 0 gusting 1 17.2
2020-Jan-24 11:33 346 17.8
2020-Jan-24 11:28 346 17.8
2020-Jan-24 11:23 347 17.8
2020-Jan-24 11:18 346 17.8
2020-Jan-24 11:13 346 17.8
2020-Jan-24 11:08 347 17.8
2020-Jan-24 11:03 347 17.8
2020-Jan-24 10:58 346 17.8
2020-Jan-24 10:53 345 17.8
2020-Jan-24 10:48 345 17.8
2020-Jan-24 10:43 345 17.8
2020-Jan-24 10:38 345 17.8
2020-Jan-24 10:33 347 0 gusting 1 17.8
2020-Jan-24 10:28 357 17.8
2020-Jan-24 10:23 001 17.8
2020-Jan-24 10:18 358 0 gusting 1 17.8
2020-Jan-24 10:13 006 17.8
2020-Jan-24 10:08 020 17.8
2020-Jan-24 10:03 002 17.8
2020-Jan-24 09:58 002 17.8
2020-Jan-24 09:53 002 17.8
2020-Jan-24 09:48 005 17.8
2020-Jan-24 09:43 005 18.3
2020-Jan-24 09:38 005 18.3
2020-Jan-24 09:33 006 18.3
2020-Jan-24 09:23 331 18.3
2020-Jan-24 09:18 001 0 gusting 4 18.3
2020-Jan-24 09:13 357 18.3
2020-Jan-24 09:08 283 18.3
2020-Jan-24 09:03 283 18.3
2020-Jan-24 08:58 285 18.3
2020-Jan-24 08:53 299 18.3
2020-Jan-24 08:48 309 18.3
2020-Jan-24 08:43 309 18.3
2020-Jan-24 08:38 309 18.3
2020-Jan-24 08:33 309 18.3
2020-Jan-24 08:28 308 18.3
2020-Jan-24 08:23 308 18.3
2020-Jan-24 08:18 308 18.3
2020-Jan-24 08:13 328 0 gusting 1 18.3
2020-Jan-24 08:08 344 1 gusting 1 18.3
2020-Jan-24 08:03 355 0 gusting 1 18.3
2020-Jan-24 07:58 321 0 gusting 2 18.3
2020-Jan-24 07:53 321 18.3
2020-Jan-24 07:48 359 1 gusting 5 18.3
2020-Jan-24 07:43 016 1 gusting 5 18.3
2020-Jan-24 07:38 029 2 gusting 4 18.3
2020-Jan-24 07:33 344 1 gusting 5 18.3
2020-Jan-24 07:28 341 2 gusting 5 18.3
2020-Jan-24 07:23 352 1 gusting 4 18.3
2020-Jan-24 07:18 022 1 gusting 4 18.3
2020-Jan-24 07:13 027 1 gusting 3 18.3
2020-Jan-24 07:08 011 1 gusting 2 18.3
2020-Jan-24 07:03 314 0 gusting 1 18.3
2020-Jan-24 06:58 331 0 gusting 2 18.3
2020-Jan-24 06:53 349 0 gusting 2 18.3
2020-Jan-24 06:48 357 0 gusting 1 18.3
2020-Jan-24 06:43 008 18.3
2020-Jan-24 06:38 320 18.3
2020-Jan-24 06:33 320 18.3
2020-Jan-24 06:28 315 1 gusting 2 18.3
2020-Jan-24 06:23 352 0 gusting 1 18.3
2020-Jan-24 06:18 321 18.3
2020-Jan-24 06:13 321 18.3
2020-Jan-24 06:08 304 0 gusting 1 18.3
2020-Jan-24 06:03 316 0 gusting 1 18.3
2020-Jan-24 05:58 271 18.3
2020-Jan-24 05:53 311 18.3
2020-Jan-24 05:48 335 18.3
2020-Jan-24 05:43 317 18.3
2020-Jan-24 05:38 260 18.3
2020-Jan-24 05:33 259 0 gusting 3 18.3
2020-Jan-24 05:28 319 18.3
2020-Jan-24 05:23 294 1 gusting 4 18.3
2020-Jan-24 05:18 309 1 gusting 3 18.3
2020-Jan-24 05:13 310 0 gusting 3 18.3
2020-Jan-24 05:08 344 1 gusting 2 18.3
2020-Jan-24 05:03 303 18.3
2020-Jan-24 04:58 271 18.3
2020-Jan-24 04:53 279 0 gusting 1 18.3
2020-Jan-24 04:48 265 18.3
2020-Jan-24 04:43 220 18.3
2020-Jan-24 04:33 329 18.3
2020-Jan-24 04:28 329 18.3
2020-Jan-24 04:23 351 18.3
2020-Jan-24 04:18 283 18.3
2020-Jan-24 04:13 278 18.3
2020-Jan-24 04:08 276 18.3
2020-Jan-24 04:03 277 18.3
2020-Jan-24 03:58 303 18.3
2020-Jan-24 03:53 311 18.3
2020-Jan-24 03:48 320 0 gusting 2 18.3
2020-Jan-24 03:43 349 0 gusting 4 18.3
2020-Jan-24 03:38 331 1 gusting 3 18.3
2020-Jan-24 03:33 345 1 gusting 2 18.3
2020-Jan-24 03:28 299 0 gusting 2 18.3
2020-Jan-24 03:23 340 0 gusting 2 18.3
2020-Jan-24 03:18 001 18.3
2020-Jan-24 03:13 011 1 gusting 2 18.3
2020-Jan-24 03:08 272 18.3
2020-Jan-24 03:03 274 18.3
2020-Jan-24 02:58 321 1 gusting 3 18.3
2020-Jan-24 02:53 330 0 gusting 1 18.3
2020-Jan-24 02:48 272 18.3
2020-Jan-24 02:43 266 0 gusting 3 18.3
2020-Jan-24 02:38 309 1 gusting 3 18.3
2020-Jan-24 02:33 359 1 gusting 1 18.3
2020-Jan-24 02:28 238 18.3
2020-Jan-24 02:23 264 0 gusting 2 18.3
2020-Jan-24 02:18 281 18.3
2020-Jan-24 02:13 277 0 gusting 2 18.3
2020-Jan-24 02:08 281 18.3
2020-Jan-24 02:03 265 0 gusting 1 18.3
2020-Jan-24 01:58 332 0 gusting 1 18.3
2020-Jan-24 01:53 324 18.3
2020-Jan-24 01:48 269 18.3
2020-Jan-24 01:43 296 18.3
2020-Jan-24 01:38 249 18.3
2020-Jan-24 01:33 278 0 gusting 1 18.3
2020-Jan-24 01:28 315 18.3
2020-Jan-24 01:23 323 18.3
2020-Jan-24 01:18 324 18.3
2020-Jan-24 01:13 285 18.3
2020-Jan-24 01:08 325 18.3
2020-Jan-24 01:03 325 18.3
2020-Jan-24 00:58 351 0 gusting 2 18.3
2020-Jan-24 00:53 014 0 gusting 1 18.3
2020-Jan-24 00:48 305 0 gusting 2 18.3
2020-Jan-24 00:43 295 0 gusting 3 18.3
2020-Jan-24 00:38 319 1 gusting 3 18.3
2020-Jan-24 00:33 316 0 gusting 2 18.3
2020-Jan-24 00:28 321 18.3
2020-Jan-24 00:23 313 18.3
2020-Jan-24 00:18 306 18.3
2020-Jan-24 00:13 272 18.3
2020-Jan-24 00:08 311 18.3
2020-Jan-24 00:03 311 18.3
2020-Jan-23 23:58 301 18.3
2020-Jan-23 23:53 302 18.3
2020-Jan-23 23:48 316 18.3
2020-Jan-23 23:43 316 18.3
2020-Jan-23 23:38 327 0 gusting 1 18.3
2020-Jan-23 23:33 008 0 gusting 1 18.3
2020-Jan-23 23:28 327 18.3
2020-Jan-23 23:23 008 1 gusting 2 18.3
2020-Jan-23 23:18 271 18.9
2020-Jan-23 23:13 268 18.3
2020-Jan-23 23:08 354 18.3
2020-Jan-23 23:03 354 18.9
2020-Jan-23 22:58 355 18.9
2020-Jan-23 22:53 355 18.9
2020-Jan-23 22:48 355 18.9
2020-Jan-23 22:43 356 18.9
2020-Jan-23 22:39 358 18.9
2020-Jan-23 22:33 357 18.9
2020-Jan-23 22:28 307 18.9
2020-Jan-23 22:23 301 18.9
2020-Jan-23 22:18 308 0 gusting 3 18.9
2020-Jan-23 22:14 319 0 gusting 1 18.9
2020-Jan-23 22:08 355 18.9
2020-Jan-23 22:03 041 18.9
2020-Jan-23 21:58 041 0 gusting 6 18.9
2020-Jan-23 21:53 091 2 gusting 6 19.4
2020-Jan-23 21:48 078 2 gusting 6 20.0
2020-Jan-23 21:43 126 1 gusting 2 20.6
2020-Jan-23 21:38 082 20.6
2020-Jan-23 21:33 027 0 gusting 2 20.6
2020-Jan-23 21:28 357 1 gusting 3 20.6
2020-Jan-23 21:23 024 1 gusting 3 20.6
2020-Jan-23 21:18 086 20.6
2020-Jan-23 21:13 049 1 gusting 4 20.0
2020-Jan-23 21:08 071 20.6
2020-Jan-23 21:04 030 1 gusting 3 20.6
2020-Jan-23 20:58 044 0 gusting 4 20.6
2020-Jan-23 20:53 052 0 gusting 5 20.6
2020-Jan-23 20:48 024 0 gusting 6 20.0
2020-Jan-23 20:43 076 2 gusting 6 20.6
2020-Jan-23 20:38 093 2 gusting 5 20.6
2020-Jan-23 20:33 088 1 gusting 6 20.6
2020-Jan-23 20:28 079 3 gusting 9 20.6
2020-Jan-23 20:23 060 2 gusting 6 20.6
2020-Jan-23 20:18 045 2 gusting 7 21.1
2020-Jan-23 20:13 101 5 gusting 7 20.6
2020-Jan-23 20:08 084 2 gusting 7 20.6
2020-Jan-23 20:03 087 2 gusting 6 20.6
2020-Jan-23 19:58 070 2 gusting 3 20.0
2020-Jan-23 19:53 089 0 gusting 0 20.0
2020-Jan-23 19:48 004 20.0
2020-Jan-23 19:43 003 20.0
2020-Jan-23 19:38 281 20.0
2020-Jan-23 19:33 282 19.4
2020-Jan-23 19:28 169 0 gusting 6 20.0
2020-Jan-23 19:23 163 2 gusting 6 20.0
2020-Jan-23 19:18 152 1 gusting 3 20.0
2020-Jan-23 19:13 151 0 gusting 3 20.6
2020-Jan-23 19:08 226 1 gusting 6 20.6
2020-Jan-23 19:03 143 2 gusting 6 21.1
2020-Jan-23 18:58 220 21.7
2020-Jan-23 18:53 172 21.1
2020-Jan-23 18:48 172 21.1
2020-Jan-23 18:43 172 21.1
2020-Jan-23 18:38 171 20.6
2020-Jan-23 18:33 115 20.0
2020-Jan-23 18:28 140 1 gusting 9 20.0
2020-Jan-23 18:23 213 3 gusting 9 20.0
2020-Jan-23 18:18 065 1 gusting 7 20.6
2020-Jan-23 18:13 074 2 gusting 6 21.1
2020-Jan-23 18:08 046 1 gusting 4 21.1
2020-Jan-23 18:03 075 1 gusting 6 21.1
2020-Jan-23 17:58 092 1 gusting 7 21.1
2020-Jan-23 17:53 108 6 gusting 7 21.1
2020-Jan-23 17:48 130 4 gusting 6 21.1
2020-Jan-23 17:43 151 3 gusting 13 21.1
2020-Jan-23 17:38 079 6 gusting 13 22.2
2020-Jan-23 17:33 103 4 gusting 10 23.3
2020-Jan-23 17:28 143 3 gusting 8 23.3
2020-Jan-23 17:23 131 5 gusting 11 22.8
2020-Jan-23 17:18 115 6 gusting 11 23.3
2020-Jan-23 17:13 027 5 gusting 9 23.3
2020-Jan-23 17:08 117 4 gusting 7 23.3
2020-Jan-23 17:03 082 3 gusting 8 23.9
2020-Jan-23 16:58 098 2 gusting 10 23.9
2020-Jan-23 16:53 114 6 gusting 10 23.3
2020-Jan-23 16:48 102 2 gusting 8 23.3
2020-Jan-23 16:43 043 2 gusting 5 22.8
2020-Jan-23 16:38 001 1 gusting 2 22.8
2020-Jan-23 16:33 350 0 gusting 2 22.2
2020-Jan-23 16:28 318 0 gusting 4 22.2
2020-Jan-23 16:23 349 1 gusting 4 21.7
2020-Jan-23 16:18 341 21.7
2020-Jan-23 16:13 063 1 gusting 5 21.7
2020-Jan-23 16:08 005 3 gusting 5 21.1
2020-Jan-23 16:03 342 2 gusting 6 20.6
2020-Jan-23 15:58 268 3 gusting 6 20.6
2020-Jan-23 15:53 354 1 gusting 3 20.0
2020-Jan-23 15:48 349 0 gusting 3 20.0
2020-Jan-23 15:43 304 0 gusting 2 19.4
2020-Jan-23 15:38 349 19.4
2020-Jan-23 15:33 020 1 gusting 5 18.9
2020-Jan-23 15:28 312 1 gusting 5 18.9
2020-Jan-23 15:23 357 1 gusting 4 18.3
2020-Jan-23 15:18 324 2 gusting 4 18.3
2020-Jan-23 15:13 327 0 gusting 2 17.8
2020-Jan-23 15:08 316 17.8
2020-Jan-23 15:03 007 0 gusting 3 17.8
2020-Jan-23 14:58 323 0 gusting 3 17.2
2020-Jan-23 14:53 301 0 gusting 3 16.7
2020-Jan-23 14:48 309 1 gusting 5 16.7
2020-Jan-23 14:43 358 1 gusting 5 16.1
2020-Jan-23 14:33 300 0 gusting 3 15.6
2020-Jan-23 14:28 307 0 gusting 3 15.6
2020-Jan-23 14:23 297 0 gusting 3 15.0
2020-Jan-23 14:18 334 1 gusting 3 14.4
2020-Jan-23 14:13 311 0 gusting 6 14.4
2020-Jan-23 14:08 345 1 gusting 4 14.4
2020-Jan-23 14:03 340 1 gusting 3 14.4
2020-Jan-23 13:58 012 1 gusting 3 14.4
2020-Jan-23 13:53 015 1 gusting 3 13.9
2020-Jan-23 13:48 018 0 gusting 4 13.9
2020-Jan-23 13:43 357 2 gusting 6 13.9
2020-Jan-23 13:38 316 2 gusting 5 13.9
2020-Jan-23 13:33 022 0 gusting 3 13.9
2020-Jan-23 13:28 270 0 gusting 3 13.9
2020-Jan-23 13:23 003 0 gusting 2 13.9
2020-Jan-23 13:18 045 0 gusting 4 13.3
2020-Jan-23 13:13 009 1 gusting 2 13.3
2020-Jan-23 13:08 323 1 gusting 3 13.3
2020-Jan-23 13:03 316 0 gusting 3 13.3
2020-Jan-23 12:58 310 1 gusting 3 13.3
2020-Jan-23 12:53 322 0 gusting 4 13.3
2020-Jan-23 12:48 302 1 gusting 4 13.3
2020-Jan-23 12:43 328 0 gusting 3 13.3
2020-Jan-23 12:38 297 0 gusting 3 13.3
2020-Jan-23 12:33 311 0 gusting 3 13.3
2020-Jan-23 12:28 295 1 gusting 3 13.3
2020-Jan-23 12:23 261 0 gusting 3 13.3
2020-Jan-23 12:18 333 1 gusting 3 13.3
2020-Jan-23 12:13 321 2 gusting 6 13.3
2020-Jan-23 12:08 351 3 gusting 6 13.3
2020-Jan-23 12:03 316 2 gusting 5 13.3
2020-Jan-23 11:58 308 1 gusting 5 13.3
2020-Jan-23 11:53 006 1 gusting 2 13.3
2020-Jan-23 11:48 355 1 gusting 7 13.3
2020-Jan-23 11:43 357 3 gusting 7 13.3
2020-Jan-23 11:38 358 1 gusting 5 13.3
2020-Jan-23 11:33 326 2 gusting 5 13.3
2020-Jan-23 11:28 350 1 gusting 3 13.3
2020-Jan-23 11:23 288 1 gusting 3 13.3
2020-Jan-23 11:18 316 0 gusting 3 13.3
2020-Jan-23 11:13 323 13.3
2020-Jan-23 11:08 351 1 gusting 4 13.3
2020-Jan-23 11:03 014 1 gusting 4 13.3
2020-Jan-23 10:58 335 1 gusting 2 13.3
2020-Jan-23 10:53 334 13.3
2020-Jan-23 10:48 024 0 gusting 3 13.3
2020-Jan-23 10:43 010 0 gusting 3 13.3
2020-Jan-23 10:38 311 13.3
2020-Jan-23 10:33 347 1 gusting 3 13.3
2020-Jan-23 10:28 319 0 gusting 2 13.3
2020-Jan-23 10:23 354 0 gusting 2 13.3
2020-Jan-23 10:18 358 13.3
2020-Jan-23 10:13 306 13.3
2020-Jan-23 10:08 330 1 gusting 3 13.3
2020-Jan-23 10:03 295 1 gusting 4 13.3
2020-Jan-23 09:58 326 1 gusting 5 13.3
2020-Jan-23 09:53 316 2 gusting 6 13.3
2020-Jan-23 09:48 311 3 gusting 6 13.3
2020-Jan-23 09:43 304 2 gusting 4 13.3
2020-Jan-23 09:38 335 1 gusting 6 13.3
2020-Jan-23 09:33 317 3 gusting 6 13.3
2020-Jan-23 09:28 322 0 gusting 6 13.3
2020-Jan-23 09:23 300 2 gusting 6 13.3
2020-Jan-23 09:18 325 2 gusting 4 13.3
2020-Jan-23 09:13 311 0 gusting 6 13.3
2020-Jan-23 09:08 330 2 gusting 6 13.3
2020-Jan-23 09:03 294 3 gusting 6 13.3
2020-Jan-23 08:59 347 1 gusting 4 13.3
2020-Jan-23 08:53 312 13.3
2020-Jan-23 08:48 349 0 gusting 3 13.3
2020-Jan-23 08:43 307 0 gusting 4 13.3
2020-Jan-23 08:38 328 1 gusting 6 13.3
2020-Jan-23 08:33 349 2 gusting 6 13.3
2020-Jan-23 08:28 358 2 gusting 6 13.3
2020-Jan-23 08:23 332 2 gusting 6 13.3
2020-Jan-23 08:19 011 2 gusting 6 13.3
2020-Jan-23 08:13 338 2 gusting 6 13.3
2020-Jan-23 08:08 317 2 gusting 4 13.3
2020-Jan-23 08:03 299 1 gusting 6 13.3
2020-Jan-23 07:58 309 3 gusting 6 13.3
2020-Jan-23 07:53 321 1 gusting 4 13.3
2020-Jan-23 07:48 337 0 gusting 4 13.3
2020-Jan-23 07:43 323 0 gusting 5 13.3
2020-Jan-23 07:38 283 0 gusting 5 13.3
2020-Jan-23 07:33 297 1 gusting 4 13.3
2020-Jan-23 07:28 311 1 gusting 4 13.3
2020-Jan-23 07:23 340 0 gusting 6 13.3
2020-Jan-23 07:18 335 2 gusting 6 13.3
2020-Jan-23 07:13 008 1 gusting 5 13.3
2020-Jan-23 07:08 309 2 gusting 6 13.3
2020-Jan-23 07:03 337 3 gusting 6 13.3
2020-Jan-23 06:58 290 1 gusting 6 13.3
2020-Jan-23 06:53 301 2 gusting 5 13.3
2020-Jan-23 06:48 321 1 gusting 5 13.3
2020-Jan-23 06:43 303 1 gusting 5 13.3
2020-Jan-23 06:38 321 1 gusting 5 13.3
2020-Jan-23 06:33 318 2 gusting 7 13.3
2020-Jan-23 06:28 338 2 gusting 8 13.3
2020-Jan-23 06:23 346 1 gusting 4 13.3
2020-Jan-23 06:18 309 2 gusting 4 13.3
2020-Jan-23 06:13 001 13.9
2020-Jan-23 06:08 314 2 gusting 5 13.3
2020-Jan-23 06:03 359 1 gusting 6 13.9
2020-Jan-23 05:58 311 2 gusting 6 13.3
2020-Jan-23 05:53 331 0 gusting 6 13.9
2020-Jan-23 05:48 308 1 gusting 4 13.3
2020-Jan-23 05:43 316 1 gusting 3 13.3
2020-Jan-23 05:38 322 1 gusting 5 13.3
2020-Jan-23 05:33 311 1 gusting 6 13.3
2020-Jan-23 05:28 004 2 gusting 6 13.3
2020-Jan-23 05:23 336 3 gusting 9 13.3
2020-Jan-23 05:18 300 4 gusting 9 13.3
2020-Jan-23 05:13 322 3 gusting 6 13.3
2020-Jan-23 05:08 339 3 gusting 5 13.3
2020-Jan-23 05:03 335 1 gusting 4 13.3
2020-Jan-23 04:58 332 1 gusting 6 13.3
2020-Jan-23 04:53 343 2 gusting 6 13.3
2020-Jan-23 04:48 348 2 gusting 6 13.3
2020-Jan-23 04:43 309 2 gusting 6 13.3
2020-Jan-23 04:38 302 3 gusting 10 13.3
2020-Jan-23 04:33 349 3 gusting 10 13.3
2020-Jan-23 04:28 304 3 gusting 6 13.3
2020-Jan-23 04:23 348 1 gusting 6 13.3
2020-Jan-23 04:18 326 2 gusting 6 13.3
2020-Jan-23 04:13 306 3 gusting 7 13.3
2020-Jan-23 04:08 301 3 gusting 10 13.3
2020-Jan-23 04:03 331 5 gusting 10 13.3
2020-Jan-23 03:59 355 3 gusting 6 12.8
2020-Jan-23 03:53 304 2 gusting 6 12.8
2020-Jan-23 03:48 332 2 gusting 6 12.8
2020-Jan-23 03:43 346 2 gusting 6 12.8
2020-Jan-23 03:38 023 3 gusting 7 12.8
2020-Jan-23 03:33 003 5 gusting 12 12.8
2020-Jan-23 03:28 002 6 gusting 12 12.8
2020-Jan-23 03:23 359 6 gusting 13 12.8
2020-Jan-23 03:18 332 6 gusting 12 12.8
2020-Jan-23 03:13 013 6 gusting 13 12.8
2020-Jan-23 03:08 004 6 gusting 13 12.8
2020-Jan-23 03:03 319 3 gusting 8 12.8
2020-Jan-23 02:58 297 4 gusting 9 12.8
2020-Jan-23 02:53 354 4 gusting 10 12.8
2020-Jan-23 02:48 326 5 gusting 10 12.8
2020-Jan-23 02:43 339 4 gusting 9 12.8
2020-Jan-23 02:38 326 4 gusting 10 12.8
2020-Jan-23 02:33 034 6 gusting 10 12.8
2020-Jan-23 02:28 039 3 gusting 9 12.8
2020-Jan-23 02:23 347 4 gusting 11 12.8
2020-Jan-23 02:18 359 4 gusting 11 13.3
2020-Jan-23 02:08 341 3 gusting 9 13.3
2020-Jan-23 02:03 299 4 gusting 11 13.3
2020-Jan-23 01:58 308 6 gusting 11 13.3
2020-Jan-23 01:53 292 5 gusting 9 13.3
2020-Jan-23 01:48 321 4 gusting 14 13.3
2020-Jan-23 01:43 338 5 gusting 14 13.3
2020-Jan-23 01:38 326 3 gusting 9 13.3
2020-Jan-23 01:28 311 5 gusting 12 13.3
2020-Jan-23 01:23 345 5 gusting 7 13.3
2020-Jan-23 01:18 351 4 gusting 10 13.3
2020-Jan-23 01:13 329 3 gusting 10 13.3
2020-Jan-23 01:08 325 6 gusting 11 13.3
2020-Jan-23 01:03 325 5 gusting 10 13.3
2020-Jan-23 00:58 358 5 gusting 8 13.3
2020-Jan-23 00:53 345 2 gusting 6 13.9
2020-Jan-23 00:48 356 3 gusting 10 13.9
2020-Jan-23 00:43 337 4 gusting 7 13.9
2020-Jan-23 00:38 344 3 gusting 7 13.9
2020-Jan-23 00:33 346 3 gusting 9 13.9
2020-Jan-23 00:28 331 6 gusting 11 13.9
2020-Jan-23 00:23 348 6 gusting 11 13.9
2020-Jan-23 00:18 333 2 gusting 8 13.9
2020-Jan-23 00:13 328 5 gusting 8 13.9
2020-Jan-23 00:08 020 2 gusting 8 13.9
2020-Jan-23 00:04 331 5 gusting 8 13.9
2020-Jan-22 23:58 345 4 gusting 6 13.9
2020-Jan-22 23:53 335 2 gusting 11 14.4
2020-Jan-22 23:48 317 5 gusting 12 14.4
2020-Jan-22 23:43 296 4 gusting 12 14.4
2020-Jan-22 23:38 338 5 gusting 10 14.4
2020-Jan-22 23:33 322 4 gusting 11 14.4
2020-Jan-22 23:28 350 4 gusting 11 14.4
2020-Jan-22 23:23 352 6 gusting 13 14.4
2020-Jan-22 23:18 332 4 gusting 13 14.4
2020-Jan-22 23:13 335 3 gusting 9 15.0
2020-Jan-22 23:08 302 3 gusting 8 15.0
2020-Jan-22 23:03 272 2 gusting 9 15.0